Voltar ao catálogo

SL-12 DEB

AtivoMEO
NORAD 19753·DEBRIS·🇷🇺 Russia

Lançado Jan 10, 1989 de Baikonur Cosmodrome

Loading…

Próximas Passagens (próximas 24 horas)

TLE

AtualizadoSource: Space-Track

Época: Sep 14, 2026, 11:49 UTC

1 19753U 89001E   26257.49274069 -.00000011  00000-0  00000-0 0  9999
2 19753  65.0028  69.1154 0024863 212.6702 151.5780  2.13160798293599

Acompanhe SL-12 DEB em tempo real com AllMySat

Download on the App Store